Date String (YYYY-MM-DD hh:mm:ss) UTC,Instrument flags,absolute air pressure of the measurement (hPa),sample flow rate (lpm),inlet stack bypass flow (lpm),air temperature of the measurement (°C),ambient temperature measured by the external sensor (°C),aerosol sample conditioner tube jacket temperature (°C),OPC LED temperature (°C),internal box temperature (°C),relative humidity of the measurement (%),span deviation,mass concentration of particles derived from Lorenz-Mie calculation of OPC scattering (μg/m³),mass concentration of particles derived from Lorenz-Mie calculation of OPC scattering (μg/m³),mass concentration of particles derived from Lorenz-Mie calculation of OPC scattering (μg/m³)
DateTimeUTC,F1_M11,P_M11,Q1_M11,Q2_M11,T1_M11,T2_M11,T3_M11,T4_M11,T5_M11,U1_M11,ZSPAN_M11,X0_M11,X2_M11,X1_M11
2023-12-22 09:00:00,SystemResetWarning,0832.6,5.00,000.00,023.3,022.2,000.0,031.6,024.7,13.2,0000.0,0002.68,0001.71,0001.30
2023-12-22 09:01:00,SystemResetWarning,0832.6,5.00,000.00,023.3,022.2,000.0,031.6,024.7,13.2,0000.0,0002.75,0001.71,0001.29
2023-12-22 09:02:00,SystemResetWarning,0832.6,5.00,000.00,023.2,022.2,000.0,031.6,024.7,13.2,0000.0,0002.81,0001.72,0001.29
2023-12-22 09:03:00,SystemResetWarning,0832.7,5.00,000.00,023.2,022.2,000.0,031.6,024.7,13.4,0000.0,0002.84,0001.71,0001.28
2023-12-22 09:04:00,SystemResetWarning,0832.6,5.00,000.00,023.2,022.2,000.0,031.6,024.6,13.4,0000.0,0002.78,0001.69,0001.28
2023-12-22 09:05:00,SystemResetWarning,0832.6,5.00,000.00,023.2,022.2,000.0,031.6,024.6,13.5,0000.0,0002.75,0001.68,0001.28
2023-12-22 09:06:00,SystemResetWarning,0832.5,5.00,000.00,023.2,022.2,000.0,031.6,024.6,13.6,0000.0,0002.64,0001.62,0001.25
2023-12-22 09:07:00,SystemResetWarning,0832.5,5.00,000.00,023.2,022.2,000.0,031.6,024.6,13.6,0000.0,0002.62,0001.60,0001.22
2023-12-22 09:08:00,SystemResetWarning,0832.6,5.00,000.00,023.2,022.1,000.0,031.6,024.6,13.6,0000.0,0002.58,0001.57,0001.19
2023-12-22 09:09:00,SystemResetWarning,0832.5,4.99,000.00,023.2,022.1,000.0,031.6,024.6,13.6,0000.0,0002.48,0001.52,0001.17
2023-12-22 09:10:00,SystemResetWarning,0832.6,4.99,000.00,023.2,022.1,000.0,031.6,024.6,13.6,0000.0,0002.38,0001.47,0001.14
2023-12-22 09:11:00,SystemResetWarning,0832.6,5.00,000.00,023.2,022.1,000.0,031.6,024.6,13.6,0000.0,0002.23,0001.41,0001.11
2023-12-22 09:12:00,SystemResetWarning,0832.6,5.01,000.00,023.2,022.1,000.0,031.6,024.7,13.6,0000.0,0002.05,0001.35,0001.07
2023-12-22 09:13:00,SystemResetWarning,0832.6,5.00,000.00,023.2,022.1,000.0,031.6,024.6,13.6,0000.0,0001.86,0001.26,0001.02
2023-12-22 09:14:00,SystemResetWarning,0832.5,5.00,000.00,023.2,022.1,000.0,031.6,024.6,13.6,0000.0,0001.72,0001.20,0000.98
2023-12-22 09:15:00,SystemResetWarning,0832.5,5.00,000.00,023.2,022.1,000.0,031.6,024.6,13.6,0000.0,0001.63,0001.13,0000.93
2023-12-22 09:16:00,SystemResetWarning,0832.5,4.99,000.00,023.2,022.1,000.0,031.5,024.6,13.5,0000.0,0001.53,0001.07,0000.89
2023-12-22 09:17:00,SystemResetWarning,0832.5,4.99,000.00,023.2,022.1,000.0,031.6,024.6,13.5,0000.0,0001.47,0001.04,0000.87
2023-12-22 09:18:00,SystemResetWarning,0832.5,5.00,000.00,023.2,022.1,000.0,031.5,024.6,13.5,0000.0,0001.39,0001.01,0000.86
2023-12-22 09:19:00,SystemResetWarning,0832.6,5.00,000.00,023.2,022.1,000.0,031.5,024.6,13.5,0000.0,0001.44,0000.98,0000.84
2023-12-22 09:20:00,SystemResetWarning,0832.6,5.00,000.00,023.2,022.1,000.0,031.5,024.6,13.5,0000.0,0001.50,0000.95,0000.83
2023-12-22 09:21:00,SystemResetWarning,0832.6,5.01,000.00,023.2,022.1,000.0,031.5,024.6,13.5,0000.0,0001.63,0000.96,0000.82
2023-12-22 09:22:00,SystemResetWarning,0832.6,5.01,000.00,023.2,022.1,000.0,031.5,024.6,13.4,0000.0,0001.74,0001.00,0000.81
2023-12-22 09:23:00,SystemResetWarning,0832.6,5.00,000.00,023.2,022.1,000.0,031.5,024.6,13.3,0000.0,0001.74,0001.00,0000.81
2023-12-22 09:24:00,SystemResetWarning,0832.7,5.00,000.00,023.2,022.1,000.0,031.5,024.6,13.3,0000.0,0001.87,0001.04,0000.83
2023-12-22 09:25:00,SystemResetWarning,0832.6,4.99,000.00,023.2,022.1,000.0,031.5,024.6,13.3,0000.0,0001.93,0001.07,0000.84
2023-12-22 09:26:00,SystemResetWarning,0832.6,4.99,000.00,023.2,022.1,000.0,031.5,024.6,13.3,0000.0,0001.97,0001.09,0000.86
2023-12-22 09:27:00,SystemResetWarning,0832.7,5.00,000.00,023.2,022.1,000.0,031.5,024.6,13.5,0000.0,0002.03,0001.12,0000.87
2023-12-22 09:28:00,SystemResetWarning,0832.6,5.01,000.00,023.2,022.1,000.0,031.5,024.6,13.5,0000.0,0002.03,0001.14,0000.89
2023-12-22 09:29:00,SystemResetWarning,0832.6,5.01,000.00,023.2,022.1,000.0,031.5,024.5,13.5,0000.0,0002.04,0001.15,0000.92
2023-12-22 09:30:00,SystemResetWarning,0832.6,5.00,000.00,023.2,022.1,000.0,031.5,024.5,13.5,0000.0,0002.00,0001.16,0000.93
2023-12-22 09:31:00,SystemResetWarning,0832.6,5.00,000.00,023.2,022.1,000.0,031.5,024.5,13.5,0000.0,0001.85,0001.18,0000.96
2023-12-22 09:32:00,SystemResetWarning,0832.6,5.00,000.00,023.1,022.1,000.0,031.5,024.5,13.6,0000.0,0001.92,0001.20,0000.98
2023-12-22 09:33:00,SystemResetWarning,0832.6,5.00,000.00,023.1,022.1,000.0,031.5,024.5,13.6,0000.0,0002.11,0001.21,0000.99
2023-12-22 09:34:00,SystemResetWarning,0832.7,4.99,000.00,023.1,022.0,000.0,031.5,024.5,13.5,0000.0,0002.08,0001.20,0000.99
2023-12-22 09:35:00,SystemResetWarning,0832.7,4.99,000.00,023.1,022.0,000.0,031.5,024.5,13.6,0000.0,0002.03,0001.19,0000.99
2023-12-22 09:36:00,SystemResetWarning,0832.6,5.00,000.00,023.1,022.0,000.0,031.5,024.5,13.7,0000.0,0001.99,0001.19,0000.99
2023-12-22 09:37:00,SystemResetWarning,0832.6,5.00,000.00,023.1,022.0,000.0,031.5,024.5,13.7,0000.0,0002.02,0001.21,0001.00
2023-12-22 09:38:00,SystemResetWarning,0832.5,5.01,000.00,023.1,022.0,000.0,031.5,024.5,13.7,0000.0,0001.96,0001.18,0000.99
2023-12-22 09:39:00,SystemResetWarning,0832.6,5.00,000.00,023.1,022.0,000.0,031.4,024.5,13.7,0000.0,0001.89,0001.15,0000.97
2023-12-22 09:40:00,SystemResetWarning,0832.6,5.00,000.00,023.1,022.0,000.0,031.4,024.5,13.7,0000.0,0001.94,0001.14,0000.93
2023-12-22 09:41:00,SystemResetWarning,0832.6,5.00,000.00,023.1,022.0,000.0,031.4,024.5,13.6,0000.0,0001.96,0001.12,0000.91
2023-12-22 09:42:00,SystemResetWarning,0832.7,5.00,000.00,023.1,022.0,000.0,031.4,024.5,13.6,0000.0,0001.99,0001.11,0000.87
2023-12-22 09:43:00,SystemResetWarning,0832.6,5.00,000.00,023.1,022.0,000.0,031.4,024.5,13.6,0000.0,0001.96,0001.08,0000.83
2023-12-22 09:44:00,SystemResetWarning,0832.7,5.00,000.00,023.1,022.0,000.0,031.4,024.5,13.6,0000.0,0001.70,0001.05,0000.82
2023-12-22 09:45:00,SystemResetWarning,0832.7,5.00,000.00,023.1,022.1,000.0,031.4,024.5,13.5,0000.0,0001.66,0001.05,0000.81
2023-12-22 09:46:00,SystemResetWarning,0832.7,5.00,000.00,023.1,022.1,000.0,031.4,024.5,13.5,0000.0,0001.67,0001.04,0000.80
2023-12-22 09:47:00,SystemResetWarning,0832.6,5.00,000.00,023.1,022.1,000.0,031.4,024.6,13.6,0000.0,0001.68,0001.03,0000.78
2023-12-22 09:48:00,SystemResetWarning,0832.6,5.00,000.00,023.1,022.2,000.0,031.4,024.6,13.5,0000.0,0001.61,0001.00,0000.76
2023-12-22 09:49:00,SystemResetWarning,0832.7,5.00,000.00,023.1,022.2,000.0,031.4,024.6,13.4,0000.0,0001.59,0000.99,0000.75
2023-12-22 09:50:00,SystemResetWarning,0832.6,5.00,000.00,023.1,022.2,000.0,031.4,024.6,13.4,0000.0,0001.62,0000.99,0000.74
2023-12-22 09:51:00,SystemResetWarning,0832.7,5.00,000.00,023.1,022.2,000.0,031.4,024.6,13.4,0000.0,0001.57,0000.98,0000.77
2023-12-22 09:52:00,SystemResetWarning,0832.6,5.00,000.00,023.1,022.3,000.0,031.4,024.6,13.4,0000.0,0001.54,0001.00,0000.79
2023-12-22 09:53:00,SystemResetWarning,0832.6,5.00,000.00,023.1,022.3,000.0,031.4,024.5,13.5,0000.0,0001.51,0001.00,0000.80
2023-12-22 09:54:00,SystemResetWarning,0832.6,5.00,000.00,023.1,022.3,000.0,031.4,024.6,13.5,0000.0,0001.40,0001.01,0000.84
2023-12-22 09:55:00,SystemResetWarning,0832.7,5.00,000.00,023.1,022.3,000.0,031.4,024.5,13.4,0000.0,0001.53,0001.09,0000.89
2023-12-22 09:56:00,SystemResetWarning,0832.6,5.00,000.00,023.1,022.3,000.0,031.4,024.5,13.4,0000.0,0001.55,0001.14,0000.95
2023-12-22 09:57:00,SystemResetWarning,0832.6,5.00,000.00,023.1,022.3,000.0,031.4,024.5,13.4,0000.0,0002.63,0001.22,0001.02
2023-12-22 09:58:00,SystemResetWarning,0832.6,4.99,000.00,023.1,022.3,000.0,031.4,024.6,13.4,0000.0,0003.12,0001.31,0001.10
2023-12-22 09:59:00,SystemResetWarning,0832.6,4.99,000.00,023.1,022.3,000.0,031.4,024.6,13.4,0000.0,0003.23,0001.38,0001.14
